[ hide orbit diagram ]
For accurate long-term ephemerides, please instead use our Horizons system.This orbit viewer was implemented using two-body methods, and hence should not be used for determining accurate long-term trajectories (over several years or decades) or planetary encounter circumstances.
Orbital Elements at Epoch 2459200.5 (2020-Dec-17.0) TDB
Reference: JPL 32 (heliocentric ecliptic J2000)
Element | Value | Uncertainty (1-sigma) | Units |
e | .1605974647295033 | 1.7136e-08 | |
a | 2.71781092954217 | 1.243e-08 | au |
q | 2.281337384643563 | 4.8353e-08 | au |
i | 13.33714042151953 | 5.6857e-07 | deg |
node | 48.44201571410946 | 3.9643e-06 | deg |
peri | 254.0524449109697 | 1.0386e-05 | deg |
M | 230.8944059532891 | 1.2905e-05 | deg |
tp | 2459787.407754466002 (2022-Jul-26.90775447) | 6.0393e-05 | TDB |
period | 1636.542499710092 4.48 | 1.1227e-05 3.074e-08 | d yr |
n | .2199759554449535 | 1.5091e-09 | deg/d |
Q | 3.154284474440777 | 1.4426e-08 | au |
|
| | Orbit Determination Parameters
Additional Information
|
[ show covariance matrix ]
Physical Parameter Table
Parameter |
Symbol |
Value |
Units |
Sigma |
Reference |
Notes |
absolute magnitude |
H |
13.71 |
|
n/a |
E2021B10 |
|
rotation period |
rot_per |
2.67246 |
h |
n/a |
LCDB (Rev. 2020-October); Warner et al., 2009 |
Result based on less than full coverage, so that the period may be wrong by 30 percent or so. Published Reference List: [Pal, A.; Szakats, R.; Kiss, C.; Bodi, A.; et al. (2019) Ap. J. Supl. Ser. 247, id.26.] |
|
11622 Samuele | Discovered 1996 Sept. 9 by A. Boattini and L. Tesi at San Marcello Pistoiese. |
Samuele Marconi (b. 1975) is a very active amateur astronomer at the San Marcello Observatory who spends much of his time giving public lectures on astronomy. |
NOTE: some special characters may not display properly (any characters within {} are an attempt to place the proper accent above a character) |
Reference: 20001013/MPCPages.arc | Last Updated: 2013-03-29 |
|
[ show close-approach data ]
|